Regional Weather Roundup
Issued by NWS Bismarck, ND

Home | Current Version | Previous Version | Text Only | Print | Product List | Glossary On
Versions: 1 2 3 4 5 6 7 8 9 10 11 12 13 14 15 16 17 18 19 20 21 22 23 24 25 26 27 28 29 30 31 32 33 34 35 36 37 38 39 40 41 42 43 44 45 46 47 48 49 50
000
ASUS43 KBIS 270710
RWRBIS

NWR BROADCAST TEXT
NATIONAL WEATHER SERVICE BISMARCK ND
100 AM CST MON FEB 27 2017

NOTE: "FAIR" INDICATES FEW OR NO CLOUDS BELOW 12,000 FEET WITH NO
SIGNIFICANT WEATHER AND/OR OBSTRUCTIONS TO VISIBILITY.


CITY           SKY/WX    TMP DP  RH WIND       PRES   REMARKS
WILLISTON      FAIR      11   6  81 NW7       29.81R WCI   0
MINOT          FAIR      14  10  84 SW9       29.80S WCI   2
MINOT AFB      FAIR       8   4  86 SW9       29.80R WCI  -6
BISMARCK       FAIR      12   9  87 SE3       29.86R
DICKINSON      CLOUDY    14  11  87 S6        29.75F WCI   5
GARRISON         N/A      7   3  84 CALM      29.81R
HETTINGER ARPT CLOUDY    20  17  88 SE7       29.77F WCI  11
JAMESTOWN      CLOUDY    21  17  84 CALM      29.85S
CARRINGTON     FAIR      10   9  92 S7        29.87R WCI   0
HAZEN            N/A    N/A N/A N/A CALM      29.84S
MANDAN         FAIR      14  12  92 SW3       29.84R
RUGBY            N/A      5   3  92 SW8       29.82R WCI  -8
STANLEY        FAIR       5   5 100 W7        29.80S WCI  -7
TIOGA          FAIR       5   5 100 W8        29.79S WCI  -8
WATFORD CITY   CLOUDY    18  16  93 SW6       29.80S WCI   9
$$

CITY           SKY/WX    TMP DP  RH WIND       PRES   REMARKS
GRAND FORKS    FAIR       6  -1  73 S7        29.90S WCI  -6
GRAND FORKS AF FAIR       8   3  79 SW5       29.90S WCI  -1
DEVILS LAKE    FAIR       7   4  87 S5        29.84F WCI  -2
FARGO          CLOUDY    21  15  78 SE6       29.91S WCI  13
CAVALIER         N/A     14   7  73 SW6       29.86S WCI   5
GRAFTON        PTSUNNY    9   5  85 S8        29.91R WCI  -4
GWINNER        CLOUDY    21  19  93 E9        29.87F WCI  11
ROLLA          FAIR       7   5  92 SW10      29.79R WCI  -8
$$

CITY           SKY/WX    TMP DP  RH WIND       PRES   REMARKS
ABERDEEN       FAIR      22  19  89 N7        29.86R WCI  13
MOBRIDGE       FAIR      24  20  84 CALM      29.81R
BUFFALO          N/A     22  19  89 E6        29.66F WCI  14
RAPID CITY     MOCLDY    26  14  60 S6        29.74F WCI  19
GLASGOW        LGT SNOW  19  14  81 NE3       29.77S
SIDNEY         CLOUDY    21  17  84 NW3       29.80F
WOLF POINT     CLOUDY    14  10  84 CALM      29.80F
GLENDIVE       LGT SNOW  20  17  88 NE7       29.77F FOG     WCI  11
MILES CITY     CLOUDY    24  18  77 NE8       29.71F WCI  15
BAKER          CLOUDY    21  17  84 SE9       29.73S WCI  11
$$

CITY           SKY/WX    TMP DP  RH WIND       PRES   REMARKS
BILLINGS       CLOUDY    24  18  77 N9        29.61S WCI  14
GREAT FALLS    LGT SNOW  15  12  88 NE8       29.68S FOG     WCI   4
REGINA         PTCLDY     3  -2  78 W10       29.81S WCI -12
ESTEVAN        MOCLDY    12   7  79 NW14      29.80R WCI  -3
$$





USA.gov is the U.S. government's official web portal to all federal, state and local government web resources and services.